{"data":{"norad_id":48386,"epoch":"2026-09-19T20:59:53.671200Z","epoch_age_seconds":87771,"freshness":"FRESH","line1":"1 48386U 21038AK  26262.87492675  .00000864  00000+0  39599-4 0  9995","line2":"2 48386  53.1611 161.8383 0001584 101.1278 258.9902 15.31715517297005","mean_motion":15.31715517,"eccentricity":0.0001584,"inclination_deg":53.1611,"raan_deg":161.8383,"arg_perigee_deg":101.1278,"mean_anomaly_deg":258.9902,"bstar":3.9599e-5,"rev_number":29700,"period_min":94.012235563192,"perigee_km":469.60888545732,"apogee_km":471.77859503583,"semimajor_km":6848.8307402466,"source":"CELESTRAK","updated_at":"2026-09-20T09:00:38.945034Z"}}